[[{"header":{"parameterUnit":"m.s-1","parameterCategory":1,"la1":30.2992,"la2":30.254,"lo1":-89.0895,"lo2":-89.0443,"dy":0.0025,"dx":0.0025,"nx":19,"ny":19,"refTime":"2026-04-08T21:00:00:Z","depth":0,"parameterNumber":2,"parameterNumberName":"U-component_of_WINDS"},"data":[0,0,0,-3.804,-3.8041,-3.8079,-3.8079,-3.8173,-3.8175,0,0,0,0,0,0,0,0,0,0,0,-3.8055,-3.8057,-3.804,-3.8041,-3.8079,-3.8079,-3.8173,-3.8175,0,0,0,0,0,0,0,0,0,0,0,-3.8055,-3.8056,-3.8058,-3.8041,-3.8079,-3.8079,-3.8173,-3.8128,0,0,0,0,0,0,0,0,0,0,-3.8083,-3.8124,-3.8056,-3.8058,-3.8042,-3.8079,-3.8079,-3.8125,-3.8131,-3.8176,0,-3.8222,0,-3.82,-3.8184,-3.8184,0,0,0,-3.8021,-3.8119,-3.8105,-3.8059,-3.8042,-3.8079,-3.8056,-3.8128,-3.8134,-3.8184,-3.8222,-3.8225,-3.8201,-3.8185,-3.8185,-3.8508,-3.851,0,0,-3.8019,-3.8077,-3.8101,-3.8111,-3.8107,-3.8055,-3.8058,-3.8131,-3.8178,-3.8223,-3.8226,-3.8203,-3.8186,-3.8187,-3.8505,-3.8508,0,0,0,-3.8027,-3.8076,-3.8059,-3.8108,-3.8112,-3.8057,-3.806,-3.8174,-3.8164,-3.8227,-3.8204,-3.8186,-3.8188,-3.8503,-3.8507,-3.8684,0,0,0,-3.8024,-3.808,-3.8059,-3.8095,-3.8111,-3.8143,-3.8103,-3.8159,-3.8165,-3.8204,-3.8186,-3.8189,-3.85,-3.8505,-3.8673,-3.8759,0,0,0,-3.8044,-3.8082,-3.8097,-3.8098,-3.8116,-3.8141,-3.8134,-3.8159,-3.8153,-3.8184,-3.819,-3.8498,-3.8504,-3.8664,-3.8743,-3.8862,0,0,0,-3.8081,-3.8254,-3.8101,-3.8285,-3.8116,-3.825,-3.8133,-3.8229,-3.8277,-3.8187,-3.85,-3.8506,-3.8661,-3.8733,-3.8853,-3.8975,-3.903,0,0,-3.8331,-3.8286,-3.8389,-3.8254,-3.8429,-3.8239,-3.8441,-3.843,-3.838,-3.8469,-3.8475,-3.8677,-3.8742,-3.886,-3.9319,-3.9363,0,0,0,-3.8488,-3.8564,-3.8598,-3.8646,-3.8642,-3.8646,-3.8599,-3.8595,-3.8667,-3.8437,-3.8749,-3.8786,-3.8853,-3.8909,-3.8947,-3.9002,-3.8534,-3.8533,-3.8533,-3.8926,-3.8853,-3.902,-3.8953,-3.9001,-3.895,-3.8984,-3.897,-3.8882,-3.8957,-3.8984,-3.927,-3.9338,-3.9366,-3.9424,-3.904,-3.9041,-3.9041,-3.9042,-3.9288,-3.9384,-3.9263,-3.9382,-3.9304,-3.9403,-3.9362,-3.9296,-3.9378,-3.9244,-3.9299,-3.9161,-3.9417,-3.9464,-3.9054,-3.9052,-3.905,-3.9049,-3.9048,-3.9568,-3.9602,-3.9594,-3.9657,-3.9714,-3.9638,-3.9723,-3.9648,-3.9579,-3.9634,-3.9655,-3.9652,-3.9641,-3.9648,-3.965,-3.965,-3.9651,-3.9652,-3.9653,-3.9864,-3.9848,-3.9929,-3.994,-3.9961,-3.9981,-3.9932,-3.9951,-3.9955,-3.9894,-3.9893,-3.98,-3.9455,-3.9371,-3.9668,-3.9665,-3.9663,-3.9662,-3.9661,-4.0261,-4.0159,-4.0284,-4.0306,-4.0313,-4.0376,-4.0278,-4.0326,-4.0331,-4.0376,-4.0269,-4.0026,-3.9974,-3.9944,-3.9874,-4.0283,-4.0283,-4.0283,-4.0283,-4.05,-4.0466,-4.0577,-4.0617,-4.0648,-4.0573,-4.0718,-4.0683,-4.063,-4.0629,-4.0558,-4.0459,-4.0431,-4.0396,-4.0355,-4.029,-4.0795,-4.0796,-4.0796,-4.0741,-4.0707,-4.0844,-4.079,-4.079,-4.0793,-4.0927,-4.098,-4.0898,-4.0815,-4.0627,-4.0606,-4.0444,-4.0395,-4.031,-4.0249,-4.0126,0,0]},{"header":{"parameterUnit":"m.s-1","parameterCategory":1,"la1":30.2992,"la2":30.254,"lo1":-89.0895,"lo2":-89.0443,"dy":0.0025,"dx":0.0025,"nx":19,"ny":19,"refTime":"2026-04-08T21:00:00:Z","depth":0,"parameterNumber":3,"parameterNumberName":"V-component_of_WINDS"},"data":[0,0,0,1.3644,1.3643,1.3569,1.3569,1.3468,1.3467,0,0,0,0,0,0,0,0,0,0,0,1.3665,1.3664,1.3644,1.3642,1.357,1.3569,1.3468,1.3467,0,0,0,0,0,0,0,0,0,0,0,1.3665,1.3664,1.3663,1.3642,1.357,1.3569,1.3468,1.3525,0,0,0,0,0,0,0,0,0,0,1.3597,1.3616,1.3664,1.3663,1.3642,1.357,1.3569,1.3528,1.3521,1.3499,0,1.3482,0,1.3473,1.346,1.346,0,0,0,1.3642,1.3621,1.3603,1.3663,1.3641,1.357,1.3602,1.3524,1.3517,1.349,1.348,1.3477,1.3471,1.3459,1.3459,1.3339,1.3339,0,0,1.3646,1.3649,1.3608,1.3598,1.3614,1.3605,1.36,1.352,1.3508,1.348,1.3474,1.347,1.3459,1.3458,1.334,1.3339,0,0,0,1.3658,1.3652,1.3636,1.3602,1.359,1.3602,1.3597,1.3511,1.3506,1.3473,1.3469,1.3458,1.3457,1.334,1.334,1.3318,0,0,0,1.366,1.3659,1.3638,1.364,1.3592,1.3551,1.359,1.3511,1.3502,1.3469,1.3458,1.3456,1.3341,1.334,1.332,1.3305,0,0,0,1.3669,1.366,1.365,1.364,1.3609,1.3552,1.3542,1.3509,1.3499,1.3459,1.3455,1.3341,1.334,1.3321,1.3308,1.3275,0,0,0,1.3679,1.3629,1.365,1.3592,1.361,1.3541,1.3543,1.349,1.3453,1.3457,1.3341,1.334,1.3322,1.331,1.3277,1.3246,1.3235,0,0,1.3617,1.3622,1.3587,1.3604,1.3533,1.3552,1.3476,1.3436,1.3427,1.3368,1.3365,1.3319,1.3308,1.3275,1.3173,1.3164,0,0,0,1.3569,1.3544,1.3525,1.3493,1.3465,1.3439,1.3412,1.3398,1.3349,1.3399,1.3299,1.3292,1.3273,1.3258,1.325,1.3232,1.3334,1.3334,1.3334,1.3483,1.3479,1.3422,1.3409,1.3378,1.3353,1.3326,1.3302,1.3302,1.3279,1.326,1.32,1.3183,1.3177,1.3158,1.3246,1.3246,1.3246,1.3246,1.3391,1.3354,1.3363,1.331,1.3305,1.3259,1.3233,1.3236,1.319,1.3213,1.3195,1.3217,1.3167,1.315,1.3244,1.3245,1.3245,1.3245,1.3245,1.3332,1.3314,1.3301,1.3257,1.3222,1.321,1.3168,1.3164,1.3159,1.3142,1.3121,1.3121,1.3119,1.3133,1.3133,1.3133,1.3133,1.3132,1.3132,1.3274,1.3262,1.3228,1.3198,1.3179,1.3151,1.3128,1.3107,1.3082,1.3082,1.3082,1.3084,1.3165,1.3184,1.3129,1.3129,1.313,1.313,1.313,1.3177,1.32,1.3149,1.3129,1.3094,1.306,1.3058,1.3016,1.2998,1.2977,1.2985,1.3046,1.3048,1.3054,1.3069,1.2988,1.2988,1.2988,1.2988,1.3126,1.3129,1.3077,1.3046,1.3016,1.301,1.295,1.2932,1.2916,1.2904,1.2916,1.2937,1.2944,1.2941,1.295,1.2964,1.2857,1.2857,1.2857,1.3065,1.3066,1.3016,1.3006,1.2979,1.2955,1.2898,1.2859,1.2846,1.2852,1.2894,1.2899,1.2934,1.2946,1.2948,1.2961,1.2987,0,0]}]]